FLOCK 2E'-1

Last updated on April 16, 2018, 12:15 a.m. UTC

1 41479U 98067HZ  18105.38459580  .09024299  12245-4  94993-3 0  9992
2 41479  51.6572 247.7635 0010585 249.4096 110.7638 16.36621036109673

Satellite is not in orbit.